Location: Владивосток
(43.1151°N, 131.8856°E)
Time: 17:53:31
(UTC+10:00)

SPROUT - Pass Details

Date: 12 July 2022
Orbit: 588 x 598 km, 97.9° (Epoch: 17 August)

Event Time Altitude Azimuth Distance (km) Brightness Sun altitude
Exits shadow 00:47:27 14° 81° (E) 1,699 ? -24.5°
Maximum altitude 00:48:35 15° 63° (ENE) 1,627 ? -24.5°
Drops below altitude 10° 00:50:56 10° 29° (NNE) 1,929 ? -24.5°
Sets 00:53:54 0° 6° (N) 2,838 ? -24.6°
